#timestamp,LO_Frequency,Hit,StdDev 
1627394415.2,286047002.7,N
1627394435.0,286046999.8,N
1627394435.9,286046999.8,N
1627394455.8,286046999.7,N
1627394475.6,286047000.0,N
1627394495.4,286047002.2,N
1627394515.3,286047002.6,N
1627394535.1,286047001.6,N
1627394555.8,286047002.0,N
1627394575.7,286047001.5,N
1627394595.5,286047002.6,N
1627394615.3,286047002.6,N
1627394635.2,286046999.8,N
1627394655.9,286047002.3,N
1627394675.7,286047000.3,N
1627394695.6,286047000.2,N
1627394715.4,286047000.0,N
1627394735.2,286047000.1,N
1627394755.1,286047002.4,N
1627394756.0,286047002.4,N
1627394775.8,286047000.2,N
1627394795.6,286047000.3,N
1627394815.5,286047000.4,N
1627394835.3,286047000.6,N
1627394855.1,286047000.1,N
1627394875.9,286047002.7,N
1627394895.7,286046999.9,N
1627394915.5,286047000.4,N
1627394935.4,286047000.1,N
1627394955.2,286046999.7,N
1627394975.0,286047000.5,N
1627394975.9,286047000.5,N
1627394995.8,286047002.5,N
1627395015.6,286047002.6,N
1627395035.4,286047002.1,N
1627395055.3,286047002.2,N
1627395075.1,286047002.2,N
1627395095.8,286047002.8,N
1627395115.7,286047002.1,N
1627395135.5,286047002.3,N
1627395155.3,286047002.4,N
1627395175.2,286047001.9,N
1627395195.9,286047002.5,N
1627395215.7,286047002.7,N
1627395235.6,286047002.7,N
1627395255.4,286047002.3,N
1627395275.2,286047002.1,N
1627395295.1,286047002.2,N
1627395296.0,286047002.2,N
1627395315.8,286046999.9,N
1627395335.6,286047000.8,N
1627395355.5,286047000.9,N
1627395375.3,286047000.6,N
1627395395.1,286047002.4,N
1627395415.9,286047000.9,N
1627395435.7,286047002.7,N
1627395455.5,286046999.8,N
1627395475.4,286047001.9,N
1627395495.2,286047001.4,N
1627395515.0,286047003.7,Y
1627395515.9,286047003.7,P
1627395535.8,286047002.0,N
1627395555.6,286047001.6,N
1627395575.4,286047002.1,N
1627395595.3,286047002.8,Y
1627395615.1,286046998.7,P
1627395635.8,286046996.9,N
1627395655.7,286046995.7,N
1627395675.5,286046995.9,N
1627395695.3,286046994.5,N
1627395715.2,286046993.7,N
1627395735.0,286046996.1,N
1627395735.9,286046996.1,N
1627395755.7,286046993.4,N
1627395775.6,286046993.9,N
1627395795.4,286046993.4,N
1627395815.2,286046995.0,N
1627395835.1,286046997.8,N
1627395836.0,286046997.8,N
1627395855.8,286046997.5,N
1627395875.6,286046995.8,N
1627395895.5,286046993.7,N
1627395915.3,286046993.3,Y
1627395935.1,286046997.1,P
1627395955.9,286046996.6,P
1627395975.7,286046996.7,P
1627395995.5,286046997.4,Y
1627396015.4,286047002.1,P
1627396035.2,286047001.5,N
1627396055.0,286047001.3,N
1627396055.9,286047001.3,N
1627396075.8,286047004.3,N
1627396095.6,286047001.3,N
1627396115.4,286047003.1,N
1627396135.3,286047005.5,N
1627396155.1,286047007.5,Y
1627396175.8,286047003.2,P
1627396195.7,286047004.3,P
1627396215.5,286047003.8,P
1627396235.3,286047004.1,Y
1627396255.2,286046999.0,P
1627396275.0,286047001.2,N
1627396275.9,286047001.2,N
1627396295.7,286047000.3,N
1627396315.6,286047002.7,N
1627396335.4,286047002.1,N
1627396355.2,286047002.4,N
1627396375.1,286047002.2,N
1627396376.0,286047002.2,N
1627396395.8,286047000.1,N
1627396415.6,286047000.5,N
1627396435.5,286047001.1,N
1627396455.3,286046998.2,N
1627396475.1,286046999.5,N
1627396495.9,286046996.7,N
1627396515.7,286046994.9,N
1627396535.5,286046995.8,N
1627396555.4,286046996.3,N
1627396575.2,286046994.1,N
1627396595.0,286046996.2,N
1627396595.9,286046996.2,N
1627396615.8,286046995.0,N
1627396635.6,286046996.7,N
1627396655.4,286046998.9,N
1627396675.3,286047000.8,N
1627396695.1,286047000.5,N
1627396715.8,286047000.4,N
1627396735.7,286047000.0,N
1627396755.5,286047000.9,N
1627396775.3,286046998.3,N
1627396795.2,286046998.7,N
1627396815.0,286046998.7,N
1627396815.9,286046998.7,N
1627396835.7,286046996.6,N
1627396855.6,286046997.2,N
1627396875.4,286046997.4,N
1627396895.2,286046997.6,N
1627396915.1,286046997.8,N
1627396916.0,286046997.8,N
1627396935.8,286046996.7,N
1627396955.6,286046996.6,N
1627396975.5,286046999.0,N
1627396995.3,286046998.5,N
1627397015.1,286046998.4,N
1627397035.9,286046998.7,N
1627397055.7,286046999.1,N
1627397075.5,286046999.6,N
1627397095.4,286046998.9,N
1627397115.2,286046999.2,N
1627397135.0,286046999.4,N
1627397135.9,286046999.4,N
1627397155.8,286046997.2,N
1627397175.6,286046994.9,Y
1627397195.4,286046996.9,P
1627397215.3,286046997.8,N
1627397235.1,286046997.1,P
1627397255.8,286046999.6,N
1627397275.7,286046996.6,Y
1627397295.5,286046998.6,P
1627397315.3,286047001.1,P
1627397335.2,286047000.7,N
1627397355.0,286047000.5,N
1627397355.9,286047000.5,N
1627397375.7,286047000.1,N
1627397395.6,286047000.8,N
1627397415.4,286047000.7,N
1627397435.2,286046998.1,N
1627397455.1,286046999.0,N
1627397456.0,286046999.0,N
1627397475.8,286046996.7,Y
1627397495.6,286046997.4,P
1627397515.5,286046996.5,N
1627397535.3,286046996.7,N
1627397585.2,286046999.3,E
1627397595.1,286046999.3,N
1627397596.0,286046999.3,P
1627397615.8,286046998.3,P
1627397635.7,286046998.2,Y
1627397655.5,286047002.3,P
1627397675.3,286047000.6,N
1627397695.2,286047000.4,N
1627397715.9,286047000.6,N
1627397735.7,286047001.0,N
1627397755.6,286047000.7,N
1627397775.4,286047000.3,N
1627397795.2,286047000.3,N
1627397815.1,286047000.5,N
1627397816.0,286047000.5,N
1627397835.8,286047000.6,N
1627397855.6,286047001.1,N
1627397875.5,286047001.1,N
1627397895.3,286046998.1,N
1627397915.1,286047000.7,N
1627397935.9,286047000.9,N
1627397955.7,286046998.1,N
1627397975.5,286047000.7,N
1627397995.4,286046998.7,N
